• en France
  • Liste des pays
  • À 7 jours
  • Température de l'eau
  • Carte satellitaire
  • Carte météo
  • Widgets météo
  • user-avatar
    Se connecter

    Météo par heure à Nashavar

    Ce jour, 23 Septembre, Samedi

    Heure Température Précipitation Vent Pression Humidité
    00:00 +31°C° 0 mm 1 m/s 726 mmHg 24%
    01:00 +30°C° 0 mm 1 m/s 726 mmHg 25%
    02:00 +30°C° 0 mm 1 m/s 726 mmHg 26%
    03:00 +29°C° 0 mm 1 m/s 726 mmHg 27%
    04:00 +29°C° 0 mm 1 m/s 727 mmHg 27%
    05:00 +29°C° 0 mm 1 m/s 727 mmHg 28%
    06:00 +29°C° 0 mm 1 m/s 727 mmHg 26%
    07:00 +30°C° 0 mm 1 m/s 727 mmHg 25%
    08:00 +31°C° 0 mm 1 m/s 727 mmHg 23%
    09:00 +33°C° 0 mm 1 m/s 727 mmHg 21%
    10:00 +35°C° 0 mm 2 m/s 728 mmHg 18%
    11:00 +36°C° 0 mm 2 m/s 728 mmHg 16%
    12:00 +37°C° 0 mm 2 m/s 727 mmHg 15%
    13:00 +37°C° 0 mm 1 m/s 727 mmHg 14%
    14:00 +39°C° 0 mm 1 m/s 727 mmHg 13%
    15:00 +39°C° 0 mm 1 m/s 727 mmHg 13%
    16:00 +39°C° 0 mm 1 m/s 726 mmHg 13%
    17:00 +39°C° 0 mm 2 m/s 726 mmHg 14%
    18:00 +36°C° 0 mm 1 m/s 726 mmHg 16%
    19:00 +35°C° 0 mm 1 m/s 727 mmHg 19%
    20:00 +33°C° 0 mm 1 m/s 727 mmHg 21%
    21:00 +33°C° 0 mm 1 m/s 727 mmHg 22%
    22:00 +32°C° 0 mm 1 m/s 727 mmHg 22%
    23:00 +31°C° 0 mm 1 m/s 727 mmHg 22%

    Demain, 24 Septembre, Dimanche

    Heure Température Précipitation Vent Pression Humidité
    00:00 +31°C° 0 mm 1 m/s 727 mmHg 23%
    01:00 +30°C° 0 mm 1 m/s 727 mmHg 25%
    02:00 +29°C° 0 mm 1 m/s 727 mmHg 26%
    03:00 +29°C° 0 mm 1 m/s 727 mmHg 27%
    04:00 +28°C° 0 mm 1 m/s 727 mmHg 29%
    05:00 +28°C° 0 mm 1 m/s 727 mmHg 30%
    06:00 +29°C° 0 mm 1 m/s 727 mmHg 30%
    07:00 +29°C° 0 mm 1 m/s 728 mmHg 29%
    08:00 +30°C° 0 mm 1 m/s 728 mmHg 29%
    09:00 +31°C° 0 mm 1 m/s 728 mmHg 27%
    10:00 +33°C° 0 mm 1 m/s 728 mmHg 25%
    11:00 +35°C° 0 mm 2 m/s 728 mmHg 23%
    12:00 +36°C° 0 mm 2 m/s 728 mmHg 21%
    13:00 +37°C° 0 mm 2 m/s 727 mmHg 19%
    14:00 +38°C° 0 mm 2 m/s 727 mmHg 17%
    15:00 +38°C° 0 mm 2 m/s 727 mmHg 17%
    16:00 +38°C° 0 mm 2 m/s 727 mmHg 18%
    17:00 +38°C° 0 mm 2 m/s 726 mmHg 18%
    18:00 +36°C° 0 mm 2 m/s 727 mmHg 21%
    19:00 +34°C° 0 mm 1 m/s 727 mmHg 24%
    20:00 +32°C° 0 mm 1 m/s 727 mmHg 26%
    21:00 +32°C° 0 mm 1 m/s 727 mmHg 27%
    22:00 +31°C° 0 mm 1 m/s 727 mmHg 28%
    23:00 +30°C° 0 mm 1 m/s 727 mmHg 28%

    Après-demain, 25 Septembre, Lundi

    Heure Température Précipitation Vent Pression Humidité
    00:00 +30°C° 0 mm 1 m/s 727 mmHg 29%
    01:00 +29°C° 0 mm 1 m/s 727 mmHg 30%
    02:00 +29°C° 0 mm 1 m/s 726 mmHg 31%
    03:00 +28°C° 0 mm 1 m/s 726 mmHg 31%
    04:00 +28°C° 0 mm 1 m/s 726 mmHg 31%
    05:00 +27°C° 0 mm 1 m/s 726 mmHg 31%
    06:00 +28°C° 0 mm 1 m/s 727 mmHg 28%
    07:00 +29°C° 0 mm 1 m/s 727 mmHg 26%
    08:00 +30°C° 0 mm 1 m/s 727 mmHg 23%
    09:00 +32°C° 0 mm 1 m/s 727 mmHg 20%
    10:00 +34°C° 0 mm 2 m/s 727 mmHg 16%
    11:00 +36°C° 0 mm 2 m/s 727 mmHg 13%
    12:00 +37°C° 0 mm 2 m/s 727 mmHg 12%
    13:00 +37°C° 0 mm 1 m/s 726 mmHg 11%
    14:00 +39°C° 0 mm 1 m/s 726 mmHg 10%
    15:00 +37°C° 0 mm 1 m/s 726 mmHg 10%
    16:00 +37°C° 0 mm 1 m/s 725 mmHg 11%
    17:00 +37°C° 0 mm 1 m/s 725 mmHg 11%
    18:00 +36°C° 0 mm 1 m/s 726 mmHg 14%
    19:00 +34°C° 0 mm 1 m/s 726 mmHg 16%
    20:00 +32°C° 0 mm 1 m/s 726 mmHg 18%
    21:00 +32°C° 0 mm 1 m/s 726 mmHg 18%
    22:00 +31°C° 0 mm 1 m/s 726 mmHg 18%
    23:00 +30°C° 0 mm 1 m/s 726 mmHg 19%

    26 Septembre, Mardi

    Heure Température Précipitation Vent Pression Humidité
    00:00 +30°C° 0 mm 1 m/s 726 mmHg 19%
    01:00 +29°C° 0 mm 1 m/s 726 mmHg 20%
    02:00 +29°C° 0 mm 1 m/s 726 mmHg 20%
    03:00 +28°C° 0 mm 1 m/s 726 mmHg 20%
    04:00 +28°C° 0 mm 1 m/s 726 mmHg 20%
    05:00 +27°C° 0 mm 1 m/s 726 mmHg 20%
    06:00 +28°C° 0 mm 1 m/s 726 mmHg 19%
    07:00 +29°C° 0 mm 1 m/s 727 mmHg 17%
    08:00 +30°C° 0 mm 1 m/s 727 mmHg 16%
    09:00 +32°C° 0 mm 1 m/s 727 mmHg 14%
    10:00 +34°C° 0 mm 1 m/s 727 mmHg 12%
    11:00 +36°C° 0 mm 2 m/s 727 mmHg 10%
    12:00 +36°C° 0 mm 1 m/s 727 mmHg 9%
    13:00 +37°C° 0 mm 1 m/s 727 mmHg 9%
    14:00 +39°C° 0 mm 1 m/s 726 mmHg 8%
    15:00 +39°C° 0 mm 1 m/s 726 mmHg 9%
    16:00 +39°C° 0 mm 2 m/s 726 mmHg 10%
    17:00 +39°C° 0 mm 2 m/s 726 mmHg 10%
    18:00 +37°C° 0 mm 2 m/s 726 mmHg 12%
    19:00 +34°C° 0 mm 1 m/s 727 mmHg 14%
    20:00 +32°C° 0 mm 1 m/s 727 mmHg 16%
    21:00 +32°C° 0 mm 1 m/s 727 mmHg 16%
    22:00 +31°C° 0 mm 1 m/s 727 mmHg 16%
    23:00 +30°C° 0 mm 1 m/s 727 mmHg 16%

    27 Septembre, Mercredi

    Heure Température Précipitation Vent Pression Humidité
    00:00 +30°C° 0 mm 1 m/s 727 mmHg 17%
    01:00 +29°C° 0 mm 1 m/s 727 mmHg 18%
    02:00 +29°C° 0 mm 1 m/s 727 mmHg 18%
    03:00 +28°C° 0 mm 1 m/s 727 mmHg 19%
    04:00 +28°C° 0 mm 1 m/s 727 mmHg 19%
    05:00 +28°C° 0 mm 1 m/s 727 mmHg 20%
    06:00 +29°C° 0 mm 1 m/s 727 mmHg 18%
    07:00 +30°C° 0 mm 1 m/s 728 mmHg 17%
    08:00 +31°C° 0 mm 1 m/s 728 mmHg 16%
    09:00 +32°C° 0 mm 1 m/s 728 mmHg 14%
    10:00 +34°C° 0 mm 1 m/s 728 mmHg 12%
    11:00 +37°C° 0 mm 2 m/s 728 mmHg 10%
    12:00 +37°C° 0 mm 1 m/s 728 mmHg 9%
    13:00 +39°C° 0 mm 1 m/s 727 mmHg 8%
    14:00 +39°C° 0 mm 1 m/s 727 mmHg 8%
    15:00 +39°C° 0 mm 1 m/s 726 mmHg 8%
    16:00 +39°C° 0 mm 1 m/s 726 mmHg 9%
    17:00 +39°C° 0 mm 1 m/s 726 mmHg 10%
    18:00 +36°C° 0 mm 1 m/s 727 mmHg 11%
    19:00 +34°C° 0 mm 1 m/s 727 mmHg 13%
    20:00 +33°C° 0 mm 1 m/s 727 mmHg 15%
    21:00 +32°C° 0 mm 1 m/s 727 mmHg 15%
    22:00 +31°C° 0 mm 1 m/s 727 mmHg 15%
    23:00 +31°C° 0 mm 1 m/s 727 mmHg 15%

    28 Septembre, Jeudi

    Heure Température Précipitation Vent Pression Humidité
    00:00 +30°C° 0 mm 1 m/s 727 mmHg 16%
    01:00 +29°C° 0 mm 1 m/s 726 mmHg 17%
    02:00 +29°C° 0 mm 1 m/s 726 mmHg 17%
    03:00 +28°C° 0 mm 1 m/s 726 mmHg 17%
    04:00 +28°C° 0 mm 1 m/s 726 mmHg 18%
    05:00 +27°C° 0 mm 1 m/s 726 mmHg 18%
    06:00 +28°C° 0 mm 1 m/s 727 mmHg 17%
    07:00 +30°C° 0 mm 1 m/s 727 mmHg 15%
    08:00 +31°C° 0 mm 2 m/s 727 mmHg 14%
    09:00 +32°C° 0 mm 2 m/s 727 mmHg 13%
    10:00 +35°C° 0 mm 2 m/s 727 mmHg 11%
    11:00 +37°C° 0 mm 2 m/s 727 mmHg 9%
    12:00 +38°C° 0 mm 2 m/s 727 mmHg 8%
    13:00 +39°C° 0 mm 2 m/s 726 mmHg 8%
    14:00 +39°C° 0 mm 1 m/s 726 mmHg 7%
    15:00 +39°C° 0 mm 1 m/s 726 mmHg 8%
    16:00 +39°C° 0 mm 1 m/s 726 mmHg 9%
    17:00 +39°C° 0 mm 1 m/s 726 mmHg 9%
    18:00 +36°C° 0 mm 1 m/s 726 mmHg 11%
    19:00 +34°C° 0 mm 1 m/s 726 mmHg 13%
    20:00 +30°C° 0 mm 0 m/s 726 mmHg 15%
    21:00 +32°C° 0 mm 1 m/s 726 mmHg 15%
    22:00 +31°C° 0 mm 1 m/s 726 mmHg 15%
    23:00 +31°C° 0 mm 1 m/s 726 mmHg 15%
    Voir plus